Palmer, AK

1:47 PM AKDT on March 30, 2017 (GMT -0800)
Palmer Municipal

Weather History for PAAQ - February, 2012

Change the Weather History Date:

Friday, February 10, 2012

  Actual Average Record
Temperature  
Mean Temperature 29 °F -  
Max Temperature 39 °F 27 °F 48 °F (1968)
Min Temperature 21 °F 10 °F -20 °F (1957)
Degree Days  
Heating Degree Days 36    
Moisture  
Dew Point 26 °F    
Average Humidity 82    
Maximum Humidity 100    
Minimum Humidity 60    
Precipitation  
Precipitation 0.00 in - - ()
Sea Level Pressure  
Sea Level Pressure 29.50 in    
Wind  
Wind Speed 4 mph (ENE)    
Max Wind Speed 14 mph    
Max Gust Speed 26 mph    
Visibility 10 miles    
Events Rain    
Averages and records for this station are not official NWS values.
T = Trace of Precipitation, MM = Missing Value Source: NWS Daily Summary

Daily Weather History Graph

Daily Weather History Graph

Search for Another Location

Airport or City:

Trip Planner

Search our weather history database for the weather conditions in past years. The results will help you decide how hot, cold, wet, or windy it might be!

Date:

Astronomy

Feb. 10, 2012 Rise Set
Actual Time 8:55 AM AKST 5:26 PM AKST
Civil Twilight 8:07 AM AKST 6:14 PM AKST
Nautical Twilight 7:15 AM AKST 7:06 PM AKST
Astronomical Twilight 6:25 AM AKST 7:57 PM AKST
Moon 10:46 PM AKST (2/10) 8:52 AM AKST (2/10)
Length of Visible Light 10h 06m
Length of Day
8h 31m
Waning Gibbous, 89% of the Moon is Illuminated
Feb 10
Waning Gibbous
Feb 14
Last Quarter
Feb 21
New
Feb 29
First Quarter
Mar 8
Full

Hourly Weather History & Observations

Time (AKST) Temp. Windchill Dew Point Humidity Pressure Visibility Wind Dir Wind Speed Gust Speed Precip Events Conditions
12:53 AM 25.0 °F - 21.0 °F 85% 29.45 in 10.0 mi Calm Calm - N/A   Mostly Cloudy
1:53 AM 26.1 °F - 21.9 °F 84% 29.47 in 10.0 mi Calm Calm - N/A   Overcast
2:53 AM 28.9 °F 25.2 °F 21.9 °F 75% 29.46 in 10.0 mi SE 3.5 mph - N/A   Overcast
3:53 AM 30.0 °F 26.5 °F 28.0 °F 92% 29.45 in 10.0 mi North 3.5 mph - N/A   Overcast
4:02 AM 30.2 °F 26.7 °F 26.6 °F 86% 29.46 in 10.0 mi WNW 3.5 mph - N/A   Overcast
4:53 AM 30.0 °F 26.5 °F 26.1 °F 85% 29.44 in 10.0 mi North 3.5 mph - N/A   Overcast
5:53 AM 28.0 °F 22.8 °F 27.0 °F 96% 29.42 in 10.0 mi SW 4.6 mph - N/A   Clear
6:06 AM 24.8 °F 20.5 °F 24.8 °F 100% 29.43 in 10.0 mi East 3.5 mph - N/A   Scattered Clouds
6:15 AM 26.6 °F - 24.8 °F 93% 29.43 in 10.0 mi Calm Calm - N/A   Mostly Cloudy
6:53 AM 25.0 °F - 24.1 °F 96% 29.42 in 10.0 mi Calm Calm - N/A   Mostly Cloudy
7:27 AM 21.2 °F 12.6 °F 19.4 °F 93% 29.41 in 10.0 mi SE 6.9 mph - N/A   Mostly Cloudy
7:53 AM 24.1 °F - 21.9 °F 91% 29.41 in 10.0 mi Calm Calm - N/A   Overcast
8:05 AM 23.0 °F - 21.2 °F 93% 29.42 in 10.0 mi Calm Calm - N/A   Overcast
8:53 AM 24.1 °F - 21.9 °F 91% 29.43 in 10.0 mi Calm Calm - N/A   Overcast
9:53 AM 25.0 °F 19.3 °F 21.9 °F 88% 29.44 in 10.0 mi ENE 4.6 mph - N/A   Overcast
10:53 AM 28.9 °F 21.9 °F 25.0 °F 85% 29.44 in 10.0 mi North 6.9 mph - N/A   Overcast
11:53 AM 32.0 °F 26.4 °F 27.0 °F 82% 29.47 in 10.0 mi ENE 5.8 mph - N/A   Mostly Cloudy
12:28 PM 35.6 °F 30.7 °F 30.2 °F 81% 29.49 in 10.0 mi ENE 5.8 mph - N/A   Mostly Cloudy
12:53 PM 36.0 °F 30.3 °F 30.0 °F 79% 29.49 in 10.0 mi NE 6.9 mph - N/A   Mostly Cloudy
1:53 PM 37.9 °F 33.5 °F 32.0 °F 79% 29.52 in 10.0 mi ENE 5.8 mph - N/A   Overcast
2:53 PM 37.0 °F 31.6 °F 32.0 °F 82% 29.55 in 10.0 mi ENE 6.9 mph - N/A   Overcast
3:53 PM 37.0 °F 33.3 °F 32.0 °F 82% 29.59 in 10.0 mi Variable 4.6 mph - 0.00 in Rain Light Rain
4:53 PM 37.0 °F 31.6 °F 28.0 °F 70% 29.62 in 10.0 mi Variable 6.9 mph - 0.00 in   Mostly Cloudy
5:53 PM 37.0 °F 33.3 °F 26.1 °F 65% 29.61 in 10.0 mi East 4.6 mph - N/A   Partly Cloudy
6:53 PM 37.0 °F 28.9 °F 28.9 °F 73% 29.63 in 10.0 mi SSE 12.7 mph 23.0 mph N/A   Partly Cloudy
7:53 PM 37.0 °F 28.9 °F 27.0 °F 67% 29.63 in 10.0 mi SE 12.7 mph 26.5 mph N/A   Scattered Clouds
8:53 PM 35.1 °F 27.4 °F 28.9 °F 78% 29.62 in 10.0 mi SE 10.4 mph - N/A   Mostly Cloudy
9:53 PM 32.0 °F 25.6 °F 24.1 °F 73% 29.59 in 10.0 mi North 6.9 mph - N/A   Overcast
10:53 PM 37.0 °F 32.4 °F 25.0 °F 62% 29.56 in 10.0 mi Variable 5.8 mph - N/A   Overcast
11:53 PM 39.0 °F 31.0 °F 26.1 °F 60% 29.52 in 10.0 mi ESE 13.8 mph 18.4 mph N/A   Overcast